Weather History for KRAS - March, 2013

Change the Weather History Date:

Thursday, March 28, 2013

  Actual Average (KCRP) Record (KCRP)
Temperature  
Mean Temperature 66 °F 68 °F  
Max Temperature 70 °F 78 °F 98 °F (2014)
Min Temperature 63 °F 59 °F 41 °F (1931)
Degree Days  
Heating Degree Days 0 1  
Month to date heating degree days 78  
Since 1 July heating degree days 878  
Cooling Degree Days 2 5  
Month to date cooling degree days 100  
Year to date cooling degree days 176  
Growing Degree Days 16 (Base 50)    
Moisture  
Dew Point 61 °F    
Average Humidity 83    
Maximum Humidity 90    
Minimum Humidity 74    
Precipitation  
Precipitation 0.00 in 0.05 in 2.10 in (1999)
Month to date precipitation 1.74  
Year to date precipitation 5.21  
Snow  
Snow 0.00 in - - ()
Month to date snowfall  
Since 1 July snowfall  
Snow Depth -    
Sea Level Pressure  
Sea Level Pressure 30.18 in    
Wind  
Wind Speed 7 mph (SE)    
Max Wind Speed 14 mph    
Max Gust Speed 16 mph    
Visibility 10 miles    
Events      
T = Trace of Precipitation, MM = Missing Value Source: NWS Daily Summary

Daily Weather History Graph

Daily Weather History Graph

Search for Another Location

Airport or City:

Trip Planner

Search our weather history database for the weather conditions in past years. The results will help you decide how hot, cold, wet, or windy it might be!

Date:

Astronomy

Mar. 28, 2013 Rise Set
Actual Time 7:22 AM CDT 7:44 PM CDT
Civil Twilight 6:59 AM CDT 8:07 PM CDT
Nautical Twilight 6:32 AM CDT 8:35 PM CDT
Astronomical Twilight 6:04 AM CDT 9:02 PM CDT
Moon 9:24 PM CDT (3/28) 8:01 AM CDT (3/28)
Length of Visible Light 13h 08m
Length of Day
12h 21m
Full, 98% of the Moon is Illuminated
Mar 28
Full
Apr 2
Last Quarter
Apr 10
New
Apr 18
First Quarter
Apr 25
Full

Hourly Weather History & Observations

Time (CDT) Temp. Dew Point Humidity Pressure Visibility Wind Dir Wind Speed Gust Speed Precip Events Conditions
12:15 AM 63.9 °F 57.7 °F 80% 30.20 in 10.0 mi SE 9.2 mph - N/A   Overcast
12:35 AM 63.9 °F 58.1 °F 81% 30.20 in 10.0 mi SSE 9.2 mph - N/A   Overcast
12:55 AM 63.9 °F 58.3 °F 82% 30.19 in 10.0 mi SSE 8.1 mph - N/A   Overcast
1:15 AM 63.9 °F 58.6 °F 83% 30.19 in 10.0 mi SSE 9.2 mph - N/A   Overcast
1:35 AM 63.7 °F 58.6 °F 84% 30.19 in 10.0 mi SSE 8.1 mph - N/A   Overcast
1:55 AM 63.9 °F 59.0 °F 84% 30.19 in 10.0 mi SSE 9.2 mph - N/A   Overcast
2:15 AM 63.9 °F 59.4 °F 85% 30.19 in 10.0 mi South 5.8 mph - N/A   Overcast
2:35 AM 63.7 °F 59.9 °F 87% 30.19 in 10.0 mi South 3.5 mph - N/A   Overcast
2:55 AM 63.5 °F 60.3 °F 89% 30.18 in 7.0 mi South 3.5 mph - N/A   Overcast
3:15 AM 63.5 °F 60.4 °F 90% 30.18 in 10.0 mi South 4.6 mph - N/A   Overcast
3:35 AM 63.5 °F 60.3 °F 89% 30.17 in 10.0 mi SSE 4.6 mph - N/A   Overcast
3:55 AM 63.5 °F 59.9 °F 88% 30.17 in 10.0 mi SSE 4.6 mph - N/A   Overcast
4:15 AM 63.5 °F 60.1 °F 89% 30.15 in 10.0 mi SSE 6.9 mph - N/A   Overcast
4:35 AM 63.5 °F 59.9 °F 88% 30.15 in 10.0 mi SSE 5.8 mph - N/A   Overcast
4:55 AM 63.5 °F 59.9 °F 88% 30.15 in 10.0 mi SSE 4.6 mph - N/A   Overcast
5:15 AM 63.5 °F 59.9 °F 88% 30.15 in 10.0 mi SSE 6.9 mph - N/A   Overcast
5:35 AM 63.7 °F 59.9 °F 87% 30.15 in 10.0 mi SSE 5.8 mph - N/A   Overcast
5:55 AM 63.5 °F 59.9 °F 88% 30.15 in 10.0 mi SE 6.9 mph - N/A   Overcast
6:15 AM 63.5 °F 60.1 °F 89% 30.15 in 10.0 mi SE 4.6 mph - N/A   Overcast
6:35 AM 63.9 °F 60.1 °F 87% 30.15 in 10.0 mi SE 5.8 mph - N/A   Overcast
6:55 AM 63.9 °F 60.1 °F 87% 30.16 in 10.0 mi SE 6.9 mph - N/A   Overcast
7:15 AM 64.0 °F 59.9 °F 86% 30.16 in 10.0 mi SE 6.9 mph - N/A   Overcast
7:35 AM 64.4 °F 60.3 °F 86% 30.17 in 10.0 mi SE 5.8 mph - N/A   Overcast
7:55 AM 64.4 °F 60.8 °F 88% 30.17 in 10.0 mi SE 6.9 mph - N/A   Overcast
8:15 AM 64.4 °F 61.0 °F 89% 30.18 in 10.0 mi SE 5.8 mph - N/A   Overcast
8:35 AM 64.8 °F 61.0 °F 88% 30.18 in 10.0 mi ESE 4.6 mph - N/A   Overcast
8:55 AM 64.9 °F 61.0 °F 87% 30.18 in 10.0 mi ESE 5.8 mph - N/A   Overcast
9:15 AM 65.3 °F 61.3 °F 87% 30.19 in 10.0 mi ESE 5.8 mph - N/A   Overcast
9:35 AM 65.8 °F 61.3 °F 85% 30.19 in 10.0 mi SE 6.9 mph - N/A   Overcast
9:55 AM 66.2 °F 61.0 °F 83% 30.20 in 10.0 mi SE 8.1 mph - N/A   Overcast
10:15 AM 66.6 °F 60.8 °F 82% 30.20 in 10.0 mi SE 8.1 mph - N/A   Overcast
10:35 AM 67.5 °F 60.3 °F 78% 30.21 in 10.0 mi SE 11.5 mph 16.1 mph N/A   Overcast
10:55 AM 67.5 °F 60.3 °F 78% 30.22 in 10.0 mi SE 9.2 mph - N/A   Overcast
11:15 AM 68.4 °F 60.8 °F 77% 30.22 in 10.0 mi SE 8.1 mph - N/A   Overcast
11:35 AM 68.0 °F 60.6 °F 77% 30.22 in 10.0 mi SE 8.1 mph - N/A   Overcast
11:55 AM 67.8 °F 60.6 °F 78% 30.22 in 10.0 mi SE 9.2 mph - N/A   Overcast
12:15 PM 68.0 °F 61.0 °F 78% 30.22 in 10.0 mi SE 8.1 mph - N/A   Overcast
12:35 PM 68.2 °F 61.3 °F 79% 30.22 in 10.0 mi SE 9.2 mph - N/A   Overcast
12:55 PM 69.1 °F 61.7 °F 77% 30.21 in 10.0 mi ESE 6.9 mph - N/A   Overcast
1:15 PM 68.2 °F 61.0 °F 78% 30.21 in 10.0 mi SE 8.1 mph - N/A   Overcast
1:35 PM 68.9 °F 61.5 °F 77% 30.20 in 10.0 mi SE 5.8 mph - N/A   Overcast
1:55 PM 68.9 °F 61.2 °F 76% 30.20 in 10.0 mi SE 9.2 mph - N/A   Overcast
2:15 PM 68.9 °F 61.2 °F 76% 30.19 in 10.0 mi ESE 6.9 mph - N/A   Overcast
2:35 PM 68.4 °F 61.3 °F 78% 30.18 in 10.0 mi ESE 10.4 mph - N/A   Overcast
2:55 PM 70.0 °F 61.9 °F 75% 30.18 in 10.0 mi ESE 11.5 mph - N/A   Overcast
3:15 PM 69.3 °F 61.3 °F 76% 30.17 in 10.0 mi ESE 12.7 mph - N/A   Overcast
3:35 PM 70.7 °F 61.9 °F 74% 30.17 in 10.0 mi ESE 10.4 mph - N/A   Overcast
3:55 PM 70.2 °F 61.3 °F 74% 30.16 in 10.0 mi ESE 13.8 mph - N/A   Overcast
4:15 PM 69.4 °F 61.7 °F 76% 30.15 in 10.0 mi ESE 10.4 mph - N/A   Overcast
4:35 PM 68.9 °F 61.3 °F 77% 30.15 in 10.0 mi ESE 10.4 mph - N/A   Overcast
4:55 PM 69.4 °F 61.7 °F 76% 30.14 in 10.0 mi SE 8.1 mph - N/A   Overcast
5:15 PM 68.7 °F 61.3 °F 77% 30.15 in 10.0 mi SE 8.1 mph - N/A   Overcast
5:35 PM 68.0 °F 61.7 °F 80% 30.15 in 10.0 mi SE 8.1 mph - N/A   Overcast
5:55 PM 67.5 °F 61.7 °F 82% 30.15 in 10.0 mi SE 6.9 mph - N/A   Overcast
6:15 PM 67.1 °F 61.7 °F 83% 30.15 in 10.0 mi ESE 8.1 mph - N/A   Overcast
6:35 PM 67.1 °F 61.7 °F 83% 30.15 in 10.0 mi SE 9.2 mph - N/A   Overcast
6:55 PM 66.7 °F 61.3 °F 83% 30.15 in 10.0 mi ESE 9.2 mph - N/A   Overcast
7:15 PM 66.6 °F 61.2 °F 83% 30.15 in 10.0 mi ESE 9.2 mph - N/A   Overcast
7:35 PM 66.4 °F 61.3 °F 84% 30.16 in 10.0 mi SE 5.8 mph - N/A   Overcast
7:55 PM 66.2 °F 61.3 °F 84% 30.16 in 10.0 mi SE 6.9 mph - N/A   Overcast
8:15 PM 65.8 °F 61.7 °F 86% 30.16 in 10.0 mi ESE 5.8 mph - N/A   Overcast
8:35 PM 65.7 °F 61.3 °F 86% 30.17 in 10.0 mi SE 6.9 mph - N/A   Overcast
8:55 PM 65.8 °F 61.3 °F 85% 30.17 in 10.0 mi SE 6.9 mph - N/A   Overcast
9:15 PM 65.7 °F 61.3 °F 86% 30.18 in 10.0 mi SE 6.9 mph - N/A   Overcast
9:35 PM 65.7 °F 61.3 °F 86% 30.17 in 10.0 mi SE 5.8 mph - N/A   Overcast
9:55 PM 64.9 °F 61.3 °F 88% 30.18 in 10.0 mi SE 5.8 mph - N/A   Overcast
10:15 PM 65.3 °F 61.3 °F 87% 30.18 in 10.0 mi SE 5.8 mph - N/A   Overcast
10:35 PM 64.9 °F 61.3 °F 88% 30.18 in 10.0 mi SE 6.9 mph - N/A   Mostly Cloudy
10:55 PM 64.6 °F 61.2 °F 89% 30.19 in 10.0 mi ESE 5.8 mph - N/A   Scattered Clouds
11:15 PM 64.6 °F 61.2 °F 89% 30.19 in 10.0 mi SE 5.8 mph - N/A   Mostly Cloudy
11:35 PM 64.4 °F 61.3 °F 90% 30.19 in 10.0 mi SE 5.8 mph - N/A   Overcast
11:55 PM 64.8 °F 61.2 °F 88% 30.18 in 10.0 mi SE 6.9 mph - N/A   Mostly Cloudy